Wind_Speed
71 73 76 78 80 81 82 82 82 82 81 81 82 85 88 88 83 84 84 79 82 84 81 81 81 80 79 77 74 73 71 69 67 64 61 56 53 49 48 49 47 45 44 43 42 40 37 35 34 32 30 30 30 30 31 32 32 29 25 23 24 23 24 25 22 18 16 19 17 15 14 12 12 12 11 11 11 11 12 12 13 13 13 13 12 11 10 9
67 70 72 76 78 79 81 83 83 82 82 81 82 85 88 90 85 84 86 80 79 84 83 80 81 81 79 78 76 74 73 71 69 66 61 59 57 53 51 50 49 47 45 44 43 40 37 36 35 33 31 30 29 29 29 32 33 32 30 26 26 26 25 24 22 20 18 19 18 17 15 14 14 13 12 12 11 11 11 11 12 12 13 13 12 12 11 10
63 66 69 72 75 76 79 82 82 82 82 81 82 85 87 90 89 85 85 82 80 83 84 81 80 81 80 79 77 76 75 74 72 67 62 61 59 56 54 52 49 48 46 45 44 41 39 38 37 35 33 31 30 29 28 30 32 34 33 29 28 28 26 25 23 22 21 21 20 18 16 15 14 14 13 13 12 10 9 9 10 11 12 12 12 12 12 11
59 62 65 68 72 73 75 80 81 82 82 81 83 86 88 90 89 86 84 82 82 83 84 83 80 80 80 79 78 78 77 77 73 67 63 63 61 58 56 55 51 49 48 46 45 43 41 41 39 36 34 32 31 29 27 27 30 33 33 31 31 30 26 25 25 24 24 22 22 20 16 17 17 15 14 13 12 9 8 9 9 11 13 13 13 13 13 12
53 56 60 64 68 71 72 76 80 81 81 81 83 86 88 89 87 85 85 83 81 83 85 85 82 80 80 79 78 79 79 79 73 67 65 64 62 60 57 56 53 51 50 47 45 44 43 42 39 38 35 33 32 29 27 27 30 31 31 33 33 31 27 25 25 26 26 24 24 21 18 20 19 16 15 14 12 10 10 10 10 12 13 15 15 14 14 13
49 49 53 58 63 67 67 69 76 80 79 81 84 86 87 88 87 84 85 85 81 81 85 85 83 81 80 80 79 80 81 79 74 69 67 65 63 62 59 57 54 52 52 48 46 45 44 42 40 38 36 34 33 30 29 30 30 29 30 33 34 32 30 27 27 27 28 27 23 21 21 21 19 17 17 15 12 12 12 11 11 11 12 14 15 14 14 13
45 44 47 53 57 60 62 61 69 79 79 80 82 83 85 85 85 86 84 84 83 79 82 84 84 83 81 81 80 81 82 80 75 70 68 66 64 62 60 58 56 54 53 50 48 46 44 42 39 38 37 37 35 32 32 33 30 28 29 31 32 32 31 30 29 28 29 27 23 22 23 21 20 19 18 17 14 13 14 12 11 12 12 14 15 15 14 14
43 44 46 50 53 55 59 58 57 67 77 80 78 75 81 83 81 84 83 83 83 79 79 82 83 84 83 82 82 84 84 81 77 71 68 67 64 63 62 60 58 56 54 51 49 47 45 42 39 39 39 38 36 34 35 34 30 27 28 29 29 29 30 32 31 31 30 28 25 23 23 22 21 20 19 19 17 15 14 13 12 13 13 13 14 14 14 14
42 44 46 48 50 49 55 59 51 53 67 75 77 70 72 79 77 77 81 84 83 78 78 81 82 84 85 83 83 86 84 79 78 73 68 67 65 63 62 60 58 57 55 52 50 48 46 43 40 40 40 39 37 37 37 34 30 27 28 28 26 26 28 32 34 33 31 29 26 24 24 23 22 20 20 21 19 17 16 15 14 14 14 14 13 13 14 14
40 42 45 45 46 46 50 57 53 50 58 67 76 73 67 72 73 74 78 84 85 78 78 82 83 84 85 85 85 86 83 78 77 74 68 66 65 64 63 62 59 57 55 53 51 49 47 43 41 41 41 39 39 39 38 34 31 29 30 27 23 23 26 31 34 34 33 31 28 26 25 24 22 20 19 21 20 19 18 17 16 14 15 15 13 13 13 13
38 40 42 43 44 47 52 55 53 54 57 63 74 76 69 67 70 73 74 81 87 81 78 82 84 83 84 86 86 86 82 77 77 75 69 67 66 65 63 62 60 57 55 53 52 50 47 43 41 42 41 40 40 40 38 35 33 31 31 28 23 23 27 29 31 33 34 32 29 28 27 25 23 19 18 22 22 22 21 19 17 15 16 16 14 13 13 12
37 40 40 44 45 47 51 50 50 57 61 65 76 75 65 65 70 73 74 78 86 86 80 79 83 84 84 86 85 84 81 77 77 75 70 68 67 66 64 63 61 58 56 54 52 50 47 44 41 41 42 41 40 41 38 36 35 34 32 29 25 25 27 26 26 30 33 33 30 29 28 25 22 19 20 26 25 23 22 19 19 18 17 17 15 14 13 13
39 42 42 46 48 46 48 48 50 58 65 70 78 76 63 62 68 71 75 78 81 85 83 78 80 83 84 86 84 83 81 77 76 74 71 70 69 67 65 64 63 61 58 56 54 51 48 46 43 42 42 42 41 42 39 37 37 35 33 30 29 28 25 24 25 27 30 31 30 31 28 23 23 24 25 28 26 23 21 20 21 20 19 18 17 16 15 13
40 43 46 49 49 47 49 50 53 57 67 76 81 80 66 61 67 70 76 80 77 77 80 80 77 80 84 85 84 82 80 77 74 73 72 72 70 68 67 65 64 62 60 59 56 54 52 49 47 45 45 43 43 43 41 38 36 34 34 33 32 29 23 24 26 24 25 28 30 31 26 23 27 28 28 30 28 23 22 22 22 21 20 19 18 17 16 14
41 42 48 52 48 48 49 50 55 57 66 80 84 83 73 63 67 73 76 79 78 68 66 76 78 79 83 84 85 82 80 78 73 68 69 71 71 68 67 66 64 63 61 60 58 56 54 52 51 49 48 46 44 44 42 39 36 35 35 34 33 28 23 26 26 22 23 26 27 28 24 23 28 28 29 32 30 26 25 24 22 21 20 20 19 18 17 16
42 41 46 52 49 46 47 48 55 58 64 80 85 84 80 69 67 77 78 75 81 69 53 66 77 77 82 84 86 84 81 79 74 68 65 67 68 66 65 64 64 63 61 60 59 58 56 55 54 52 50 49 47 46 43 41 39 38 37 35 32 27 26 29 27 24 24 24 24 24 22 23 26 27 28 32 32 28 26 24 22 21 21 20 19 18 18 16
45 43 41 49 52 47 46 50 56 57 62 77 84 84 85 78 67 73 75 69 79 75 54 60 74 75 79 83 85 85 81 79 76 73 66 63 66 65 64 64 64 63 62 61 60 59 59 58 56 55 53 50 49 48 46 45 43 41 39 35 31 28 29 31 28 26 26 24 23 23 22 22 26 26 26 29 31 30 27 25 22 20 20 20 19 19 18 18
46 46 41 46 54 51 47 52 56 56 61 74 83 83 87 85 70 67 68 63 69 73 61 61 72 75 77 81 84 83 79 77 76 75 70 65 64 66 65 64 65 64 62 62 61 60 60 60 58 57 56 53 52 51 50 47 43 40 38 33 29 29 32 32 29 28 28 27 26 24 22 23 27 26 25 27 29 29 28 26 23 20 20 20 19 18 18 18
46 47 43 46 54 53 49 51 54 54 59 73 83 83 85 87 79 69 65 64 65 68 64 62 72 77 74 76 81 81 77 72 72 74 73 70 66 65 66 66 64 63 63 63 63 62 61 60 61 60 58 56 54 52 50 47 42 39 38 35 33 33 34 34 32 32 31 30 28 25 23 25 26 23 22 25 27 28 27 25 22 21 21 21 20 19 19 18
46 47 44 46 53 53 50 50 52 53 57 71 83 84 84 85 87 79 66 66 67 66 65 63 68 72 68 72 79 80 77 68 65 69 71 73 71 67 67 67 66 64 65 65 63 63 61 60 62 61 58 55 53 51 49 46 40 38 41 41 38 37 37 36 36 34 34 32 28 26 26 26 25 22 20 22 24 24 24 23 21 20 21 21 20 20 21 21
46 48 46 45 50 51 50 50 51 53 56 68 83 87 85 83 88 83 66 65 68 61 64 66 63 65 66 71 75 76 78 70 60 61 66 71 74 73 70 68 69 68 67 67 64 62 61 62 63 60 56 53 51 50 49 45 40 40 46 46 41 40 38 37 38 36 35 33 29 28 28 26 25 23 21 20 19 19 20 20 19 18 18 18 18 19 21 22
46 47 46 44 47 49 49 49 51 52 55 65 81 88 88 86 89 83 66 66 69 60 63 68 61 63 68 70 72 72 77 76 65 58 60 64 70 74 75 72 70 69 68 68 68 66 64 64 62 57 54 53 51 52 48 43 42 45 50 48 44 42 39 39 41 37 35 34 30 31 30 26 25 25 22 20 18 18 19 18 18 17 15 15 16 18 20 20
45 46 46 44 46 50 49 48 49 50 54 63 77 87 89 88 90 86 71 65 68 65 68 68 62 68 71 69 70 72 77 80 71 61 58 61 66 67 71 75 73 71 71 71 69 68 68 66 62 57 54 54 53 54 50 44 45 49 52 51 47 43 41 42 42 38 37 36 33 33 32 28 25 25 22 20 19 19 19 18 17 15 14 14 15 16 17 16
44 44 46 45 45 50 49 48 49 50 53 60 73 82 85 87 90 90 79 67 65 70 74 69 64 72 75 70 68 69 75 80 75 67 59 59 64 62 60 66 71 72 74 72 69 68 67 64 62 59 56 55 56 56 52 47 48 50 51 50 45 42 44 45 43 40 39 38 35 34 34 29 26 26 23 21 21 19 18 18 16 15 15 16 16 14 15 15
45 44 45 45 44 48 49 48 50 51 52 57 68 76 77 81 88 90 85 73 64 69 79 73 62 70 79 74 69 64 66 74 77 73 65 60 62 62 58 58 62 67 71 71 70 69 67 65 62 61 59 57 58 57 53 49 48 48 49 48 44 42 45 47 46 42 39 38 35 36 37 31 28 27 23 22 22 19 19 19 16 17 18 18 16 15 15 16
44 43 45 45 44 48 51 51 51 52 54 56 63 70 70 74 82 86 86 82 71 68 81 78 58 62 79 79 73 65 59 65 74 76 74 68 64 62 59 59 59 62 66 68 70 70 70 67 64 64 63 59 60 59 54 50 48 47 47 46 46 44 46 49 47 42 39 38 36 38 39 34 29 27 24 23 23 21 21 20 18 19 20 19 17 17 17 16
45 43 46 47 45 48 51 52 52 52 53 57 61 63 65 68 74 79 83 86 81 71 80 80 56 55 75 79 75 68 56 55 63 73 80 77 71 64 59 59 59 60 63 65 68 72 72 70 68 67 65 62 62 60 56 53 50 48 46 45 47 48 48 51 49 43 40 40 39 39 40 37 32 26 26 25 23 22 21 20 21 21 21 20 19 19 19 17
47 45 46 47 48 49 51 52 52 51 51 56 61 58 58 62 67 74 77 81 83 76 81 82 59 53 70 73 69 66 54 47 52 64 79 81 76 72 65 57 54 54 58 61 65 72 73 70 69 67 66 64 61 58 55 53 51 50 48 47 48 49 50 52 51 46 42 42 43 40 40 41 34 27 26 28 24 21 19 21 23 22 21 21 20 21 21 19
49 48 46 47 49 49 50 51 52 53 52 55 59 55 54 55 58 66 68 75 86 83 83 84 67 57 65 62 56 57 52 46 47 54 71 79 75 74 71 61 56 52 51 55 60 65 68 68 67 66 66 64 59 57 55 53 53 53 51 50 50 49 50 53 54 49 45 46 46 42 39 42 39 31 28 29 25 20 21 22 23 22 22 22 21 21 21 21
49 49 48 48 49 49 50 51 53 56 56 56 57 55 53 50 52 58 59 71 88 87 84 88 77 64 61 55 49 53 53 49 46 47 60 73 73 71 67 58 59 59 54 55 59 61 62 64 66 64 63 61 57 56 57 55 56 55 53 52 50 49 49 53 55 52 49 50 49 44 39 42 43 36 29 27 24 21 22 24 23 24 24 23 23 23 22 22
48 48 48 48 49 50 50 50 53 55 56 58 57 57 55 50 49 54 59 71 83 86 87 89 85 74 63 54 50 52 54 51 50 48 52 63 69 70 66 55 56 62 60 59 60 61 62 64 67 65 62 62 60 58 60 61 60 59 59 55 50 48 48 52 57 56 54 54 51 45 41 41 44 38 28 24 23 22 22 24 26 26 26 25 24 23 23 23
50 49 47 47 49 51 51 51 52 52 55 57 57 58 57 53 51 53 59 67 71 79 90 90 89 84 70 58 51 49 52 51 53 54 51 55 62 65 65 60 55 58 62 62 59 60 64 65 67 67 64 64 64 63 65 66 65 65 65 59 52 50 49 51 57 60 59 56 51 47 44 43 44 39 30 25 24 23 24 25 27 27 27 27 26 25 25 24
52 51 49 47 48 50 52 53 53 52 51 52 55 58 57 57 56 53 56 60 62 73 87 89 88 89 82 71 56 49 51 48 49 56 54 52 55 57 58 57 54 52 57 62 61 60 63 66 68 69 68 66 66 66 67 68 68 68 68 64 58 55 51 50 53 57 60 58 52 48 47 47 44 39 34 28 24 25 27 27 27 28 29 30 29 28 26 25
54 52 50 49 48 50 52 53 53 52 48 45 48 54 58 58 55 51 52 55 59 70 81 87 88 88 89 83 66 54 51 45 43 51 55 53 53 56 57 56 55 51 49 54 58 59 62 67 70 71 71 70 69 67 67 67 65 64 65 63 59 56 54 51 49 50 54 56 53 50 52 51 46 39 35 32 28 27 28 28 29 29 30 30 31 29 27 26
55 51 50 51 50 50 52 53 53 52 49 46 44 47 54 57 52 50 51 50 55 68 76 82 86 87 88 87 77 65 54 45 42 48 55 55 53 56 57 56 57 55 50 50 51 52 55 60 65 68 68 69 69 67 67 67 65 65 63 59 57 57 56 54 53 51 51 53 54 55 56 54 47 41 38 36 33 30 29 29 29 30 30 30 30 30 29 29
56 51 49 52 52 51 52 53 53 52 50 50 50 50 48 48 50 50 49 46 49 61 70 75 79 82 86 88 85 78 67 54 45 48 56 57 53 54 56 54 55 57 54 52 50 50 51 53 58 64 65 63 64 64 62 62 63 65 63 58 55 52 50 50 54 56 55 55 57 58 58 55 50 45 41 39 36 34 33 31 30 30 30 31 31 31 32 32
56 52 49 51 52 53 52 53 54 53 51 50 53 55 48 43 46 47 47 46 47 53 62 68 70 73 80 87 87 84 79 67 52 47 52 55 51 52 56 53 52 54 55 55 54 53 51 51 54 59 63 62 61 61 60 59 60 61 60 57 51 48 48 49 52 56 58 59 59 58 59 57 53 48 43 40 37 34 34 33 32 32 32 32 32 33 34 34
56 52 51 52 53 53 53 53 55 55 53 52 51 53 52 48 46 44 43 44 46 50 56 61 64 64 70 80 86 86 84 77 63 51 47 50 49 48 53 55 53 54 56 57 57 56 55 54 54 56 59 61 61 60 60 59 60 59 58 56 53 51 53 53 55 58 59 60 60 59 59 58 55 50 44 41 38 36 37 35 34 34 34 35 35 36 37 37
55 51 51 54 54 54 54 54 56 56 55 55 53 51 52 51 49 46 44 43 44 48 52 57 61 61 64 72 80 84 85 83 74 60 48 47 48 44 44 51 55 56 58 60 60 60 58 57 58 58 58 59 60 62 61 59 59 59 58 59 58 57 57 55 55 56 56 57 59 61 61 60 56 50 44 41 40 39 39 38 36 36 36 38 39 39 39 37
55 51 50 54 56 56 55 54 55 58 57 56 55 53 50 48 48 48 48 47 47 47 49 53 58 60 59 65 75 81 83 84 81 71 56 47 48 44 39 44 52 56 57 59 61 65 65 62 59 59 58 57 58 60 60 57 57 59 60 62 62 61 60 59 57 56 56 56 57 60 62 60 54 49 43 39 39 39 39 40 40 38 37 38 39 40 39 37
56 52 50 52 55 57 57 55 56 59 59 58 57 55 53 50 48 48 48 49 49 47 47 49 55 59 57 57 66 75 81 84 84 79 68 54 48 46 42 42 47 53 57 58 59 63 67 67 66 63 61 59 56 53 52 52 54 57 58 60 60 59 59 58 57 55 54 53 54 57 62 62 55 49 44 39 38 38 39 41 43 42 40 38 38 38 37 35
57 55 52 51 53 55 56 56 56 58 59 60 58 55 54 52 49 48 48 50 50 48 47 46 50 56 58 56 56 64 74 81 84 84 78 64 50 43 42 42 43 49 56 59 59 59 62 65 67 67 65 61 58 55 52 50 51 54 56 56 56 57 57 55 54 51 49 50 51 54 62 65 57 51 50 46 40 38 40 44 45 45 43 40 37 35 34 33
58 56 54 52 52 54 56 56 57 58 58 58 57 57 56 54 52 50 50 50 50 50 49 47 47 50 57 58 54 56 64 72 77 82 82 73 58 45 43 43 41 43 50 56 60 62 62 63 62 62 61 60 60 59 56 53 53 54 55 55 56 56 56 54 52 51 50 51 51 52 60 65 60 54 52 47 40 38 42 45 45 44 43 40 37 35 34 34
58 56 54 53 54 55 57 57 57 57 58 57 58 59 58 56 54 53 51 49 48 49 48 47 47 47 52 57 55 52 58 64 68 75 81 79 67 55 50 45 41 41 45 53 61 66 67 69 68 64 61 60 60 60 60 59 57 55 54 53 53 53 53 53 53 54 55 55 54 56 62 65 61 55 49 42 39 39 41 41 39 39 40 39 38 37 37 37
57 58 55 52 53 56 59 59 57 55 56 57 59 59 59 58 56 55 54 52 49 48 47 46 46 46 49 55 56 51 51 57 61 68 78 81 73 64 58 50 44 42 42 45 55 64 69 73 76 75 73 71 70 69 67 63 59 58 56 53 52 51 53 54 55 57 59 58 57 59 61 59 54 49 44 39 38 37 37 37 36 35 36 38 38 39 40 40
55 58 59 57 54 56 60 62 60 57 55 56 58 59 59 59 56 54 55 56 54 50 47 45 45 48 49 53 59 55 50 51 53 58 70 81 80 71 63 57 50 44 40 40 47 58 67 73 77 80 82 81 78 75 72 69 67 64 60 56 54 53 54 56 58 60 59 58 58 55 52 50 46 42 41 40 37 34 34 36 36 35 36 38 40 41 42 43
54 56 60 61 60 60 61 62 63 62 58 57 58 58 59 58 56 55 55 56 56 53 50 45 43 47 50 52 58 60 56 53 52 50 56 72 82 77 68 63 55 47 41 40 42 50 60 67 70 74 77 78 77 75 73 72 70 65 60 56 54 54 55 57 60 58 54 55 56 49 43 43 42 39 39 37 34 34 35 36 37 37 38 40 42 43 45 45
54 54 55 59 61 62 61 61 63 63 60 59 59 59 59 59 57 57 56 55 56 56 55 51 44 43 46 49 55 61 62 60 57 52 48 55 71 78 74 70 62 53 49 47 43 45 52 56 58 61 65 67 69 69 68 67 64 61 59 56 54 55 56 57 57 53 51 55 55 46 41 42 40 37 37 36 36 37 38 39 39 40 42 43 43 45 46 45
54 53 53 55 57 60 61 60 59 60 60 59 60 60 60 60 60 58 56 56 57 57 57 57 52 45 41 44 50 57 63 64 63 60 50 43 51 64 71 74 70 64 63 60 52 49 50 49 49 53 55 57 61 63 62 63 63 62 61 59 56 58 60 60 58 54 54 58 54 48 48 47 42 39 39 41 44 45 45 44 44 44 45 43 43 45 47 46
52 52 51 51 52 54 58 61 61 61 59 58 60 61 61 61 60 59 58 58 58 58 57 57 55 52 47 45 46 50 56 60 64 66 58 46 41 46 56 69 74 72 70 66 58 53 49 46 45 47 51 55 59 60 60 61 62 62 63 61 59 59 62 65 63 60 61 61 57 53 54 53 48 44 43 46 49 50 50 49 47 46 45 43 43 45 46 46
52 51 49 48 48 49 53 58 62 64 63 61 61 62 63 62 60 59 59 60 59 58 58 56 53 53 53 52 50 48 47 51 58 65 66 59 49 42 44 55 65 67 66 64 61 54 49 47 45 44 50 56 59 60 61 59 57 58 60 58 57 60 64 67 65 63 64 62 58 56 56 53 49 45 45 47 49 51 51 50 49 48 46 43 43 45 45 46
51 51 49 47 46 47 48 51 57 64 66 65 61 61 63 63 60 59 59 60 60 59 58 57 54 53 53 54 53 49 43 43 47 54 63 69 66 58 51 51 55 59 57 56 56 54 52 51 48 43 46 49 53 58 60 58 60 62 58 52 51 54 58 62 62 63 64 63 60 59 55 49 44 42 43 46 48 48 48 48 48 48 45 43 44 45 45 45
Wind_Direction
234 233 232 231 230 230 229 229 228 226 225 225 224 224 224 222 221 221 222 223 223 222 220 220 219 218 217 218 218 219 220 220 219 219 218 218 217 211 210 213 217 218 217 216 214 211 209 208 209 211 214 215 219 220 216 216 210 208 214 218 219 219 225 227 220 208 209 219 215 215 218 217 219 217 217 216 216 216 214 213 214 217 217 212 211 205 204 206
234 233 232 230 230 229 228 228 228 227 225 224 224 223 224 222 221 220 221 223 223 222 221 220 220 218 217 217 218 219 220 220 219 218 217 218 218 213 212 214 216 218 218 217 216 213 209 207 208 209 211 213 216 219 217 217 214 210 212 216 219 217 220 224 217 206 210 218 214 214 216 217 222 220 220 222 221 220 218 219 218 221 224 220 217 212 205 205
234 232 231 230 229 229 228 227 227 226 225 224 223 223 223 223 221 220 220 222 223 222 221 220 220 219 218 217 218 219 219 220 219 216 217 218 218 216 214 214 216 217 218 218 217 214 210 208 207 207 210 211 213 217 217 217 216 214 212 213 218 219 218 222 217 205 210 217 214 212 213 217 221 222 222 223 224 222 221 224 224 226 233 229 224 223 212 206
234 232 231 230 228 227 227 227 226 226 225 223 223 222 222 222 221 220 219 221 223 222 221 220 220 221 219 218 218 218 219 220 217 215 217 219 219 218 216 216 216 216 218 218 217 215 212 209 207 207 209 210 212 214 216 218 218 218 216 214 217 218 217 221 219 209 208 215 217 210 209 218 220 220 224 225 224 221 221 224 222 223 231 232 227 227 221 214
232 231 231 230 227 226 225 226 225 225 224 222 221 221 221 222 220 219 219 219 222 222 221 221 221 221 221 219 219 218 219 219 215 215 219 219 219 219 218 218 217 216 218 218 217 216 213 211 208 207 209 210 212 212 214 218 220 219 219 218 217 216 216 220 221 216 211 211 217 214 209 219 221 220 225 226 222 218 221 221 221 222 226 232 231 229 227 222
229 228 228 228 226 224 223 223 224 223 223 220 219 220 220 221 219 217 218 218 221 222 221 220 220 221 221 220 220 219 219 217 214 216 219 219 219 220 219 219 218 218 218 217 217 217 215 213 210 210 210 211 212 211 214 218 219 218 219 221 219 215 213 217 221 220 218 213 214 215 215 220 222 222 225 225 219 216 221 219 221 227 226 232 235 232 232 229
224 223 225 225 224 221 218 220 222 221 221 218 217 218 218 220 220 217 216 217 219 222 221 220 220 221 221 220 220 220 219 217 214 216 219 219 219 220 221 220 219 219 219 218 218 219 218 215 213 213 212 212 212 211 216 219 218 217 219 223 221 216 212 215 220 220 221 217 210 214 218 220 223 224 227 227 219 216 223 218 218 229 229 232 237 234 232 231
219 220 223 225 223 220 216 215 219 220 219 216 213 215 217 218 220 218 216 216 218 220 221 219 219 220 222 221 220 220 217 216 214 215 219 221 220 220 221 221 220 220 220 219 218 220 220 217 215 216 215 214 213 212 217 219 217 218 222 225 224 220 214 215 219 220 221 218 210 212 217 219 222 223 228 231 225 220 224 221 216 226 233 232 236 237 234 232
218 220 225 226 224 222 217 213 212 216 220 216 209 209 216 218 217 217 217 217 218 220 220 218 218 219 221 221 220 220 216 216 216 215 218 221 221 221 222 222 221 221 221 220 219 220 220 218 216 218 219 217 215 214 217 220 218 219 225 226 225 223 219 217 219 219 221 220 214 213 216 218 220 222 227 232 229 224 224 224 218 222 233 234 235 239 237 234
222 222 226 228 224 219 212 209 207 209 216 215 206 203 211 217 215 213 215 217 217 220 220 218 217 218 220 220 220 219 215 216 218 217 218 221 222 222 222 223 222 222 223 223 221 220 220 219 218 219 222 221 219 217 216 219 218 220 226 226 223 224 224 222 221 219 220 222 219 217 218 218 220 220 227 233 231 227 224 225 221 218 229 235 234 237 239 237
226 225 225 226 220 211 204 204 207 206 210 211 204 202 206 213 215 211 212 216 217 218 219 218 216 217 219 220 221 218 214 217 218 217 219 220 223 223 223 224 224 224 225 225 223 221 221 220 220 221 223 223 222 221 218 218 218 219 226 226 220 223 226 225 222 219 220 223 223 221 220 220 221 219 229 235 231 228 226 226 226 221 226 233 235 236 239 239
225 225 223 220 211 205 203 205 209 207 205 203 200 199 201 207 213 211 209 215 217 218 219 218 216 216 218 220 220 217 216 218 218 218 219 218 221 223 223 224 224 224 225 226 225 223 222 221 221 222 223 224 225 225 221 219 219 218 223 225 220 223 227 227 224 220 221 224 225 225 223 223 224 220 229 237 232 229 228 227 230 226 225 230 234 237 238 240
217 218 216 210 202 202 205 207 212 209 203 198 196 196 195 200 208 209 208 213 216 218 220 219 217 216 218 220 220 218 217 218 218 219 219 218 219 221 222 223 223 223 224 225 225 223 223 221 220 222 224 224 225 226 223 221 221 219 222 224 223 224 225 228 226 221 222 225 228 229 226 225 228 222 227 237 235 230 229 227 229 229 227 229 232 236 239 242
214 212 206 201 199 203 205 207 212 211 203 195 194 195 193 195 203 206 207 211 214 216 221 220 217 215 217 219 220 219 218 219 218 218 220 219 219 220 221 222 223 223 223 223 223 221 221 221 221 222 224 225 225 226 225 223 223 222 222 222 224 223 221 228 227 220 221 225 229 231 228 228 232 225 226 236 236 231 230 228 228 229 229 230 232 235 237 240
212 207 201 200 202 204 206 208 211 212 205 197 195 195 194 194 198 201 204 210 211 211 217 221 218 215 215 217 219 219 218 219 218 218 219 219 219 221 221 222 222 222 222 223 223 222 221 222 223 223 224 224 224 226 226 224 224 225 224 222 224 222 219 229 228 219 218 221 225 230 226 227 232 229 226 234 235 231 230 229 227 228 231 232 234 237 238 239
209 202 200 204 207 206 207 207 209 213 207 199 197 196 196 197 195 198 200 205 209 207 207 216 216 214 214 216 217 218 218 218 217 217 219 219 219 220 222 223 223 222 222 223 223 223 223 224 225 224 224 224 223 225 225 223 223 224 225 224 224 221 221 230 230 222 220 218 221 224 220 224 232 230 227 232 235 232 230 231 229 228 231 234 234 238 240 240
206 201 200 207 210 210 208 205 207 212 207 201 199 196 199 201 194 192 195 197 204 204 201 208 211 211 213 215 216 217 217 217 217 218 219 219 220 220 221 222 223 223 222 222 223 223 224 225 225 225 224 224 223 224 224 223 222 222 225 226 226 223 223 228 230 228 226 221 221 221 218 226 232 231 229 231 234 233 231 232 232 230 232 234 234 235 240 242
206 204 204 207 209 212 211 206 207 210 208 203 199 197 201 204 196 188 188 189 193 196 199 204 206 207 210 212 214 215 217 218 218 219 219 220 220 220 220 221 222 223 223 222 223 223 224 225 225 225 225 224 224 225 226 225 224 226 229 232 232 228 226 228 228 230 231 226 223 220 219 229 233 232 230 230 233 234 232 232 233 233 233 233 232 232 236 239
207 206 208 211 208 211 213 209 210 210 208 204 200 201 203 204 200 192 187 185 184 187 193 201 203 205 209 210 211 212 213 218 221 221 221 221 222 222 221 220 220 221 222 222 222 222 224 224 225 224 222 223 224 226 228 227 227 232 237 236 234 232 228 227 227 227 231 229 225 222 221 229 234 233 231 229 230 232 233 234 236 237 234 231 230 229 231 232
208 207 210 213 209 210 214 212 212 210 208 206 203 204 205 203 203 201 192 185 183 183 187 196 202 204 208 208 209 209 209 214 221 223 223 223 223 223 223 222 220 220 221 222 223 223 224 225 225 224 223 224 225 227 230 229 228 233 238 236 233 232 230 229 228 227 230 231 229 226 224 229 234 233 230 228 228 230 234 238 240 240 236 232 229 228 231 231
208 208 210 214 210 210 214 213 212 210 208 207 205 206 207 204 204 203 196 188 186 184 187 193 197 200 205 206 206 207 208 210 215 219 222 223 223 224 224 223 222 221 220 220 221 222 224 225 224 224 225 227 228 229 232 233 230 231 237 237 233 234 233 232 231 228 229 231 230 229 226 226 232 233 228 226 226 227 230 234 237 239 237 236 233 231 235 238
209 209 209 212 211 211 213 212 213 212 209 209 207 209 210 208 206 203 196 191 189 185 188 191 192 196 200 203 204 206 207 209 211 213 216 219 222 224 224 224 224 224 223 222 221 220 221 222 223 224 226 226 227 228 230 233 230 229 234 237 233 234 236 235 233 230 229 230 229 230 226 222 227 232 231 229 225 225 228 229 231 235 236 238 238 236 239 243
209 209 210 212 213 212 212 212 212 211 209 211 209 210 214 212 210 207 199 194 193 189 188 189 190 194 197 199 203 206 206 208 210 212 214 214 217 222 224 225 226 225 225 225 223 223 222 221 221 223 224 224 224 225 227 229 229 228 232 236 234 233 235 235 234 231 229 229 228 230 228 222 223 228 232 234 230 227 230 230 232 236 237 238 238 238 241 243
208 209 209 211 213 212 212 212 211 210 209 211 211 213 217 216 214 213 206 198 197 193 186 185 190 194 194 196 200 205 207 208 210 212 214 213 212 213 215 220 224 225 226 226 225 225 224 223 222 222 222 222 221 224 227 227 228 229 232 235 234 233 234 234 234 231 229 229 228 231 230 224 223 223 224 232 233 231 236 237 237 241 242 241 240 238 239 239
206 208 209 211 213 211 210 211 212 211 209 211 214 216 219 218 218 219 212 202 199 197 188 185 190 193 195 197 198 202 206 209 212 214 216 216 213 210 208 210 216 221 224 224 224 224 224 223 223 223 222 221 220 222 225 227 229 231 233 234 234 234 233 232 232 230 229 229 228 232 231 222 222 224 220 227 234 234 239 241 242 245 245 246 247 242 238 237
205 206 209 209 210 209 209 210 211 211 209 211 216 219 220 220 221 222 217 208 203 200 192 188 188 190 195 197 197 201 204 205 210 215 217 219 218 213 210 209 211 217 222 223 223 223 222 221 221 223 222 221 219 219 221 223 228 232 234 234 234 236 234 231 231 230 229 230 229 233 233 223 219 225 224 225 232 236 240 244 246 246 248 249 251 249 246 245
204 205 208 207 207 207 207 209 210 209 209 211 217 221 222 222 223 222 220 216 212 203 194 191 186 183 190 196 198 202 204 201 205 211 214 217 220 216 213 211 210 214 218 220 221 222 222 220 219 221 222 222 222 221 221 222 226 231 233 234 234 236 235 231 231 230 228 230 230 231 236 230 217 220 229 228 230 237 242 248 248 247 249 250 252 254 255 255
204 204 208 207 206 206 206 207 208 208 208 212 217 221 223 224 224 221 221 221 216 205 196 192 185 178 185 193 198 201 203 201 199 205 210 213 217 219 218 215 212 214 217 219 222 223 223 222 221 222 222 223 223 222 223 225 228 230 230 230 232 233 233 232 231 231 228 229 231 231 236 236 222 214 230 232 229 235 242 247 250 250 252 253 254 255 257 258
205 206 208 208 207 205 205 206 206 207 208 211 215 219 222 225 225 222 224 222 216 208 201 196 188 181 182 186 195 200 201 201 197 200 206 210 214 219 222 221 218 220 222 221 222 224 223 223 223 223 223 223 223 220 220 224 227 228 225 224 226 228 230 231 231 231 231 229 230 231 235 239 230 216 225 235 231 231 239 245 251 255 256 255 256 257 258 260
205 208 209 209 208 206 205 205 205 207 209 211 214 218 220 224 225 224 225 222 217 213 207 202 197 188 181 180 187 194 197 199 196 193 201 207 212 215 219 223 223 224 224 221 220 221 222 223 222 221 221 221 220 218 218 221 225 226 224 221 222 225 227 229 229 231 233 230 229 231 233 240 235 220 218 233 237 236 240 246 250 253 255 256 256 257 260 263
206 208 208 209 209 207 206 207 206 207 210 212 215 218 222 224 225 227 226 221 219 217 212 209 205 197 185 180 182 186 191 197 196 191 195 202 207 211 214 215 216 218 220 220 218 217 218 220 220 219 218 218 216 214 216 220 222 225 224 221 220 222 224 227 228 230 232 230 230 232 235 240 236 226 223 232 239 242 243 246 249 250 254 256 257 259 261 264
208 209 209 210 209 207 207 209 208 208 211 213 215 219 223 225 224 226 225 220 221 221 217 214 211 204 195 188 184 184 188 194 197 196 195 197 201 207 212 212 210 210 214 218 219 216 216 219 219 216 216 218 216 214 214 217 220 223 223 221 219 220 222 226 228 230 231 231 233 235 239 240 235 235 242 241 239 244 245 246 250 252 254 256 257 257 259 263
209 211 211 212 210 208 208 210 209 208 210 213 217 219 223 226 226 226 226 222 222 222 220 218 214 210 206 200 191 187 189 189 194 200 199 198 201 203 205 209 211 213 217 220 221 219 216 216 216 214 213 216 217 216 217 219 221 223 223 223 223 222 224 226 229 231 232 233 236 239 242 240 235 238 249 251 248 246 246 248 250 253 255 256 257 258 260 263
211 213 214 213 211 209 209 210 210 209 207 209 217 221 223 225 225 224 226 225 223 223 221 220 217 214 213 208 199 192 189 183 186 197 200 201 205 206 203 204 208 212 215 219 221 221 219 217 215 213 213 215 217 218 220 222 224 226 228 231 233 232 234 236 237 237 236 236 238 240 241 238 235 240 249 257 257 251 248 250 250 252 255 257 260 263 265 266
211 213 214 214 212 210 210 211 210 209 207 206 211 219 222 224 223 222 224 224 224 224 223 222 220 218 215 211 206 201 197 189 184 190 196 199 204 208 207 206 207 208 208 210 215 219 222 222 219 217 216 216 217 218 219 220 222 226 229 234 237 238 240 243 243 243 242 239 238 238 237 237 240 245 251 256 258 257 256 254 254 254 256 258 261 263 266 268
211 213 214 214 211 210 210 212 211 209 208 207 211 216 218 220 222 222 224 223 223 223 223 223 223 222 218 215 212 209 207 203 192 188 194 197 200 204 205 206 209 211 212 212 214 216 219 222 221 219 218 218 219 221 222 223 224 227 229 231 235 237 240 243 244 245 245 242 239 237 236 238 244 248 251 257 260 262 264 262 262 262 261 262 263 264 266 267
213 215 217 216 213 211 211 212 212 211 210 210 214 217 216 214 216 219 220 220 221 221 222 223 224 225 223 219 217 214 213 211 200 191 193 197 202 205 205 205 206 210 216 219 220 221 221 223 224 221 219 220 222 223 225 226 228 230 231 233 236 238 240 242 243 244 245 243 240 237 236 240 245 247 251 260 264 266 268 267 266 266 266 266 265 266 267 266
213 215 218 218 215 213 212 212 213 213 212 212 214 217 216 214 213 215 216 217 220 221 220 221 223 226 226 223 219 217 217 216 208 197 194 199 205 208 209 209 205 207 214 219 223 225 225 226 228 226 224 223 224 225 227 228 228 230 231 232 234 236 238 240 242 244 245 246 243 240 240 243 246 248 254 263 266 267 267 266 266 267 268 269 269 268 267 266
212 213 216 216 215 214 213 213 214 215 214 214 214 215 216 216 215 216 217 218 220 221 221 221 221 225 227 225 221 218 218 218 214 206 201 203 207 207 212 215 210 208 213 219 224 226 227 228 229 229 228 228 228 228 228 229 230 230 231 232 233 235 237 238 241 243 245 248 246 244 244 243 244 250 258 264 265 266 267 268 268 267 267 268 268 267 267 266
210 212 214 215 215 214 214 214 215 216 216 216 217 217 216 217 218 218 219 220 222 222 221 220 220 222 226 226 223 221 219 220 219 214 208 206 207 207 212 219 215 211 212 219 225 227 227 228 228 229 229 229 230 231 230 230 232 233 234 235 235 237 238 239 240 241 244 247 248 249 247 242 245 255 260 262 264 265 267 268 268 267 265 264 264 265 266 266
210 212 214 214 215 214 214 215 216 216 217 218 218 218 217 217 217 216 217 219 222 223 223 222 220 219 222 225 225 223 222 222 222 219 213 206 206 208 210 216 216 213 212 216 221 225 226 227 228 230 231 231 232 233 233 233 234 236 237 239 240 242 244 245 246 246 249 252 254 256 252 245 249 258 259 259 260 260 263 265 265 266 263 261 260 261 263 264
211 213 215 216 216 216 216 217 218 218 218 218 219 220 219 218 217 216 216 218 221 223 222 222 221 219 219 221 224 224 225 225 224 222 216 210 207 206 207 211 214 215 217 217 219 223 226 227 228 230 233 235 236 235 234 233 234 236 236 237 238 241 242 244 247 249 251 253 253 256 253 245 247 256 257 257 257 257 260 262 262 263 262 262 260 259 260 262
213 214 216 217 219 220 219 219 220 219 218 218 219 220 219 218 216 215 215 218 221 223 222 221 220 219 218 219 221 224 225 226 226 223 219 215 211 205 206 210 210 216 223 222 221 224 226 227 228 229 232 234 235 236 236 235 235 234 235 236 237 239 241 242 244 244 244 246 246 251 251 245 246 252 255 256 257 256 258 257 258 261 263 264 263 261 262 262
214 214 215 215 217 220 221 222 222 221 220 218 218 219 219 218 217 217 216 217 221 223 223 222 221 220 218 216 218 222 224 225 226 224 221 218 213 209 211 212 209 214 224 225 225 225 227 229 229 229 230 231 233 234 234 234 235 235 237 239 239 241 242 242 243 242 242 243 244 247 249 246 247 253 255 257 257 256 256 256 258 263 265 265 264 263 262 262
215 214 215 215 215 218 221 222 222 223 222 221 220 220 220 220 218 219 218 217 220 222 222 221 220 220 219 215 214 217 221 222 223 224 222 218 214 213 215 215 211 211 217 223 226 227 228 231 233 233 233 234 235 236 236 238 240 242 242 241 241 241 241 241 241 241 242 244 243 245 248 248 251 256 258 258 256 255 257 260 262 263 262 260 259 259 259 259
216 216 217 218 217 218 220 222 223 223 222 222 221 221 221 221 219 219 218 217 219 220 220 219 219 219 218 215 211 211 214 216 217 221 222 219 216 215 214 216 214 209 208 213 220 225 227 231 235 237 238 240 242 244 246 247 247 246 245 245 244 239 237 237 236 239 243 243 241 243 248 250 251 255 258 259 260 259 260 262 262 259 256 254 254 254 254 256
215 217 219 221 222 222 220 220 222 223 223 224 223 222 222 222 220 219 219 218 219 220 220 218 217 219 218 216 213 211 212 213 212 213 218 220 219 217 215 216 216 211 209 211 214 220 225 229 233 237 238 240 242 245 248 249 249 247 245 245 243 239 237 237 237 241 244 242 241 244 248 249 250 253 256 257 259 259 257 256 256 252 249 249 248 248 250 253
217 218 219 222 226 227 225 223 223 224 225 225 225 225 224 223 221 220 219 219 219 220 220 217 215 217 218 218 218 215 214 215 213 208 208 215 220 220 218 217 216 215 219 221 220 221 224 226 229 234 235 236 237 239 241 243 243 241 239 239 240 240 241 241 240 240 240 240 244 247 247 247 247 247 249 249 249 250 249 249 247 245 245 245 244 245 250 254
219 219 221 223 226 228 229 228 228 227 227 226 226 226 226 224 222 221 220 219 219 220 220 218 216 215 217 218 220 219 217 216 214 209 203 204 214 219 221 220 218 221 227 230 230 229 227 223 225 230 231 232 234 235 237 238 238 236 235 236 237 239 240 241 240 238 237 240 243 244 244 245 243 241 244 246 247 248 248 247 247 247 247 244 241 244 249 252
219 220 223 226 228 229 229 229 229 228 228 227 226 226 226 226 225 223 222 221 221 221 222 221 219 218 219 221 222 222 221 219 216 213 206 200 202 210 219 222 221 224 230 232 233 232 229 226 227 231 232 230 232 233 234 235 236 235 235 235 235 237 238 238 237 236 238 241 243 244 245 247 246 245 246 247 248 250 251 251 250 249 245 240 238 240 243 247
219 221 224 228 230 231 232 232 231 229 228 227 226 225 225 225 224 223 224 224 223 223 223 224 222 222 223 225 225 223 222 221 220 218 214 210 206 206 213 218 222 226 229 231 232 229 226 227 227 231 234 231 230 232 232 233 234 233 232 230 231 235 239 240 240 239 241 243 245 246 247 250 252 250 247 246 247 250 253 253 251 246 239 235 237 239 240 243
221 223 226 228 230 232 233 234 233 231 229 228 226 225 225 225 224 223 223 224 223 223 224 224 223 223 224 226 227 225 224 223 222 220 219 217 216 215 213 210 211 216 218 220 224 225 224 225 224 225 229 229 229 232 234 235 237 235 230 226 230 237 241 243 242 241 242 243 244 246 248 252 251 244 239 238 238 242 247 248 245 240 234 233 237 239 240 243
Height
5621 5627 5632 5637 5643 5648 5655 5660 5667 5674 5681 5687 5693 5698 5703 5712 5720 5726 5731 5736 5742 5750 5755 5759 5763 5768 5773 5777 5781 5786 5789 5792 5796 5800 5806 5814 5819 5822 5824 5826 5829 5831 5834 5836 5838 5840 5844 5847 5849 5852 5855 5857 5858 5859 5861 5862 5863 5864 5866 5868 5869 5871 5871 5872 5875 5878 5878 5877 5879 5880 5880 5881 5881 5882 5883 5884 5885 5886 5887 5888 5889 5889 5890 5890 5891 5892 5893 5894
5613 5618 5623 5628 5633 5640 5646 5652 5659 5666 5673 5680 5685 5691 5696 5704 5713 5719 5725 5731 5737 5744 5750 5754 5758 5763 5768 5773 5777 5781 5784 5788 5791 5796 5804 5810 5813 5817 5821 5823 5826 5828 5831 5833 5835 5839 5842 5844 5847 5849 5851 5854 5855 5857 5858 5859 5861 5862 5864 5866 5867 5868 5869 5871 5874 5876 5876 5876 5878 5879 5880 5880 5880 5882 5882 5883 5884 5885 5887 5888 5889 5889 5889 5890 5890 5891 5892 5894
5605 5609 5614 5619 5625 5632 5638 5644 5651 5658 5666 5673 5678 5684 5690 5697 5706 5713 5720 5726 5731 5738 5745 5750 5754 5759 5763 5768 5773 5775 5778 5782 5784 5793 5801 5804 5808 5814 5817 5820 5823 5826 5829 5831 5833 5836 5839 5841 5843 5846 5848 5851 5853 5854 5856 5858 5859 5860 5862 5864 5865 5866 5868 5870 5872 5874 5874 5874 5876 5877 5879 5879 5879 5880 5881 5882 5883 5885 5887 5888 5889 5889 5889 5889 5890 5890 5892 5893
5597 5602 5607 5611 5617 5624 5630 5637 5644 5651 5658 5665 5671 5678 5683 5690 5699 5707 5715 5721 5726 5732 5739 5745 5750 5755 5758 5763 5767 5770 5773 5775 5781 5793 5798 5800 5805 5810 5814 5817 5820 5823 5826 5829 5831 5834 5836 5837 5840 5843 5846 5848 5850 5852 5855 5856 5857 5858 5860 5862 5862 5864 5867 5868 5870 5871 5872 5873 5873 5875 5878 5877 5878 5879 5880 5881 5883 5885 5886 5887 5888 5888 5888 5888 5889 5890 5891 5892
5590 5594 5600 5604 5610 5616 5622 5628 5636 5643 5650 5657 5664 5671 5677 5683 5693 5701 5708 5715 5720 5726 5733 5740 5746 5750 5753 5758 5761 5765 5767 5770 5780 5791 5793 5796 5802 5805 5810 5813 5817 5820 5822 5826 5829 5831 5833 5835 5838 5840 5843 5846 5848 5851 5853 5854 5854 5856 5859 5859 5860 5862 5865 5866 5867 5868 5870 5871 5872 5874 5876 5875 5876 5878 5879 5880 5882 5884 5885 5885 5886 5887 5887 5886 5888 5889 5890 5891
5584 5588 5593 5597 5603 5608 5614 5621 5627 5634 5642 5650 5657 5664 5671 5676 5686 5695 5701 5709 5715 5720 5726 5734 5741 5745 5748 5752 5756 5758 5761 5767 5779 5787 5788 5793 5798 5801 5806 5809 5813 5816 5818 5823 5826 5828 5830 5833 5836 5838 5841 5843 5845 5849 5850 5850 5852 5854 5856 5856 5857 5860 5862 5864 5865 5866 5867 5869 5870 5872 5873 5874 5876 5877 5878 5879 5881 5882 5883 5884 5885 5885 5886 5886 5887 5888 5889 5891
5578 5583 5586 5590 5596 5601 5608 5615 5620 5627 5635 5643 5651 5659 5665 5670 5680 5689 5696 5704 5710 5715 5721 5729 5735 5739 5743 5745 5748 5751 5756 5765 5775 5783 5786 5790 5794 5798 5801 5805 5809 5812 5814 5819 5823 5825 5828 5831 5834 5837 5839 5840 5843 5846 5846 5847 5850 5852 5853 5854 5856 5858 5861 5862 5863 5864 5865 5867 5869 5870 5871 5873 5874 5875 5876 5878 5879 5881 5881 5883 5883 5883 5884 5885 5886 5887 5888 5890
5573 5577 5581 5584 5589 5595 5601 5608 5615 5621 5627 5634 5645 5655 5660 5665 5675 5685 5695 5701 5706 5711 5716 5722 5728 5733 5736 5739 5742 5744 5752 5763 5771 5779 5783 5785 5790 5794 5797 5801 5805 5808 5811 5816 5819 5822 5826 5829 5832 5834 5835 5837 5840 5843 5843 5844 5848 5850 5851 5852 5855 5857 5859 5859 5860 5861 5863 5865 5867 5868 5869 5871 5872 5874 5875 5876 5878 5879 5880 5881 5882 5882 5883 5884 5885 5886 5887 5888
5568 5572 5576 5580 5584 5589 5595 5602 5609 5615 5621 5628 5640 5652 5658 5663 5672 5684 5694 5698 5703 5708 5711 5716 5722 5726 5730 5734 5737 5739 5751 5763 5767 5775 5779 5782 5787 5790 5794 5798 5801 5805 5808 5812 5816 5819 5822 5826 5830 5832 5833 5835 5837 5838 5840 5842 5846 5848 5849 5850 5853 5856 5857 5857 5857 5859 5861 5864 5865 5866 5868 5869 5870 5872 5873 5874 5876 5878 5878 5879 5880 5881 5882 5883 5884 5885 5886 5887
5566 5568 5572 5576 5580 5584 5590 5598 5603 5608 5615 5624 5635 5646 5654 5660 5671 5682 5688 5691 5697 5702 5704 5709 5715 5719 5723 5728 5730 5735 5751 5759 5760 5769 5776 5778 5782 5786 5790 5794 5798 5802 5805 5809 5812 5816 5819 5824 5827 5828 5830 5833 5834 5835 5837 5840 5843 5846 5846 5849 5852 5854 5854 5854 5855 5857 5859 5862 5863 5864 5866 5867 5868 5870 5872 5872 5874 5875 5876 5877 5878 5880 5881 5881 5883 5884 5884 5886
5563 5565 5568 5573 5577 5581 5587 5594 5599 5604 5609 5619 5629 5640 5649 5657 5665 5675 5681 5683 5689 5694 5696 5702 5708 5713 5719 5723 5726 5735 5749 5752 5754 5763 5769 5773 5777 5781 5787 5790 5794 5798 5802 5806 5809 5813 5817 5821 5824 5825 5827 5829 5832 5833 5835 5838 5841 5843 5844 5846 5850 5851 5851 5852 5854 5856 5858 5859 5861 5863 5864 5865 5867 5870 5870 5869 5871 5872 5874 5875 5877 5879 5879 5880 5881 5882 5883 5884
5558 5561 5565 5569 5574 5579 5586 5592 5597 5601 5606 5614 5625 5636 5646 5653 5659 5668 5677 5679 5682 5687 5691 5696 5702 5708 5713 5716 5723 5735 5744 5745 5750 5756 5761 5768 5771 5776 5781 5785 5790 5794 5798 5802 5806 5810 5814 5818 5821 5821 5823 5826 5829 5830 5833 5836 5837 5839 5841 5844 5847 5848 5849 5851 5852 5854 5856 5857 5859 5860 5862 5864 5867 5869 5868 5866 5868 5870 5872 5874 5875 5877 5878 5879 5880 5881 5882 5883
5552 5556 5561 5566 5572 5577 5584 5590 5594 5598 5603 5610 5621 5633 5642 5650 5656 5664 5673 5674 5676 5683 5687 5691 5697 5703 5706 5711 5722 5731 5736 5740 5745 5750 5755 5761 5765 5770 5775 5779 5784 5789 5793 5797 5801 5806 5810 5814 5817 5817 5819 5822 5825 5826 5830 5833 5834 5836 5839 5841 5843 5845 5848 5850 5850 5852 5854 5856 5857 5858 5860 5864 5865 5865 5865 5863 5866 5868 5870 5872 5873 5874 5876 5877 5878 5879 5880 5881
5548 5552 5558 5564 5569 5575 5581 5586 5590 5595 5600 5606 5615 5627 5636 5644 5651 5659 5667 5669 5672 5679 5682 5687 5693 5696 5700 5709 5720 5726 5731 5735 5739 5744 5749 5755 5761 5765 5770 5775 5779 5784 5788 5792 5796 5801 5805 5809 5811 5813 5814 5817 5820 5823 5826 5829 5831 5834 5836 5838 5839 5843 5848 5848 5848 5851 5853 5854 5855 5855 5859 5862 5861 5862 5863 5861 5863 5866 5868 5869 5870 5872 5874 5875 5876 5877 5879 5880
5546 5550 5557 5563 5567 5572 5578 5583 5587 5591 5598 5604 5610 5621 5630 5638 5646 5653 5660 5664 5669 5676 5678 5681 5686 5689 5695 5704 5712 5718 5724 5729 5734 5741 5746 5751 5757 5762 5767 5771 5774 5780 5784 5788 5792 5797 5800 5803 5806 5808 5810 5813 5816 5818 5822 5826 5829 5831 5832 5835 5837 5842 5846 5845 5846 5849 5850 5851 5852 5854 5857 5858 5857 5859 5860 5859 5861 5864 5865 5866 5868 5870 5872 5873 5874 5875 5877 5878
5544 5549 5555 5561 5565 5569 5575 5580 5584 5587 5594 5601 5607 5616 5623 5631 5641 5647 5654 5659 5664 5671 5674 5675 5678 5683 5690 5697 5705 5711 5716 5723 5732 5738 5741 5747 5752 5758 5763 5766 5770 5775 5779 5784 5788 5793 5796 5798 5801 5803 5806 5809 5812 5814 5817 5821 5824 5826 5828 5832 5836 5841 5844 5842 5844 5847 5847 5849 5850 5852 5854 5855 5854 5856 5857 5857 5858 5860 5862 5864 5866 5868 5870 5871 5872 5874 5875 5876
5543 5548 5553 5558 5562 5567 5571 5575 5580 5584 5591 5598 5604 5611 5617 5625 5636 5642 5648 5653 5658 5666 5668 5667 5673 5680 5683 5690 5699 5705 5711 5719 5727 5731 5737 5743 5747 5751 5757 5761 5766 5770 5775 5780 5783 5788 5790 5793 5796 5799 5802 5805 5808 5809 5812 5815 5818 5822 5825 5829 5834 5838 5839 5839 5842 5844 5845 5847 5849 5850 5852 5852 5851 5853 5854 5855 5856 5858 5860 5862 5864 5866 5867 5869 5870 5871 5873 5874
5540 5546 5550 5554 5559 5564 5568 5571 5576 5581 5587 5594 5601 5607 5611 5619 5630 5636 5642 5647 5651 5657 5660 5660 5666 5671 5673 5682 5693 5701 5710 5717 5722 5727 5733 5738 5742 5747 5752 5756 5761 5766 5771 5774 5778 5782 5784 5787 5792 5794 5797 5800 5803 5804 5807 5812 5817 5820 5824 5829 5834 5835 5836 5837 5840 5842 5842 5845 5846 5847 5850 5849 5848 5850 5852 5852 5853 5856 5858 5860 5861 5864 5865 5866 5868 5869 5870 5871
5538 5543 5548 5551 5555 5560 5564 5568 5573 5578 5584 5590 5596 5601 5604 5612 5621 5628 5634 5639 5642 5646 5651 5653 5657 5661 5668 5680 5690 5698 5708 5714 5719 5724 5728 5733 5738 5741 5745 5749 5756 5760 5764 5767 5771 5776 5779 5783 5785 5787 5792 5796 5800 5803 5806 5812 5817 5820 5824 5828 5830 5831 5832 5835 5837 5838 5839 5841 5843 5846 5847 5846 5846 5848 5850 5850 5851 5853 5855 5858 5860 5861 5862 5864 5865 5866 5867 5868
5534 5540 5544 5548 5552 5558 5561 5565 5570 5575 5580 5585 5591 5594 5597 5605 5611 5619 5628 5634 5637 5640 5642 5646 5651 5660 5670 5679 5685 5692 5702 5709 5714 5719 5724 5729 5733 5736 5739 5744 5748 5752 5756 5762 5767 5772 5775 5777 5780 5786 5792 5796 5800 5803 5805 5810 5815 5819 5821 5822 5825 5826 5829 5831 5833 5835 5837 5839 5842 5844 5844 5844 5845 5846 5847 5848 5849 5851 5853 5856 5858 5859 5860 5861 5863 5864 5864 5865
5531 5536 5541 5545 5549 5554 5557 5561 5566 5571 5576 5580 5585 5588 5592 5602 5607 5617 5630 5634 5635 5637 5638 5641 5648 5660 5669 5674 5680 5688 5697 5703 5708 5714 5718 5723 5726 5729 5733 5737 5741 5745 5752 5757 5761 5766 5768 5771 5778 5787 5792 5796 5799 5801 5803 5807 5812 5815 5815 5818 5821 5823 5826 5828 5829 5832 5834 5837 5840 5841 5841 5843 5844 5844 5845 5847 5848 5850 5852 5853 5855 5857 5858 5860 5861 5862 5862 5863
5528 5533 5539 5542 5546 5550 5554 5558 5563 5568 5573 5576 5581 5585 5590 5597 5602 5611 5624 5628 5629 5632 5635 5640 5646 5656 5665 5671 5679 5685 5691 5697 5703 5708 5712 5716 5719 5721 5727 5733 5737 5744 5750 5751 5753 5757 5761 5769 5779 5786 5789 5791 5794 5796 5799 5803 5807 5810 5810 5813 5817 5820 5824 5825 5825 5829 5832 5834 5837 5837 5838 5841 5842 5842 5844 5845 5847 5849 5850 5852 5853 5855 5856 5858 5859 5860 5861 5861
5525 5531 5536 5539 5542 5547 5550 5555 5560 5564 5569 5572 5577 5583 5585 5591 5597 5604 5614 5620 5624 5627 5631 5639 5644 5651 5661 5668 5675 5680 5685 5691 5698 5704 5707 5710 5714 5718 5724 5729 5734 5740 5741 5743 5750 5755 5761 5770 5777 5781 5783 5785 5788 5791 5794 5798 5802 5804 5806 5810 5814 5818 5821 5821 5822 5826 5828 5830 5833 5834 5835 5839 5840 5841 5842 5844 5845 5847 5848 5850 5851 5853 5855 5856 5856 5858 5859 5859
5521 5527 5532 5536 5539 5543 5549 5553 5556 5560 5565 5568 5573 5578 5581 5587 5592 5596 5607 5615 5618 5622 5628 5636 5641 5647 5656 5663 5669 5675 5680 5687 5695 5701 5705 5707 5711 5715 5719 5724 5730 5733 5734 5742 5751 5756 5762 5770 5773 5775 5776 5778 5782 5786 5789 5794 5797 5800 5803 5808 5813 5816 5817 5818 5819 5821 5824 5826 5830 5831 5832 5836 5838 5838 5840 5841 5842 5845 5846 5848 5850 5851 5852 5853 5854 5856 5856 5857
5518 5523 5528 5533 5535 5540 5545 5548 5552 5557 5562 5566 5569 5572 5577 5583 5586 5589 5600 5608 5613 5620 5624 5628 5635 5643 5650 5656 5663 5670 5678 5685 5691 5697 5701 5704 5708 5712 5715 5719 5722 5725 5731 5740 5746 5750 5757 5764 5768 5769 5770 5773 5778 5782 5786 5791 5795 5798 5801 5806 5811 5813 5814 5814 5815 5817 5820 5823 5827 5828 5828 5832 5835 5836 5839 5840 5840 5843 5844 5845 5848 5849 5849 5851 5852 5853 5854 5855
5516 5520 5525 5529 5531 5535 5540 5543 5548 5553 5559 5563 5564 5567 5573 5578 5581 5584 5594 5602 5607 5615 5619 5623 5630 5636 5644 5651 5658 5667 5673 5678 5685 5690 5695 5699 5703 5708 5711 5712 5716 5721 5729 5735 5740 5743 5749 5756 5761 5763 5765 5770 5773 5777 5782 5787 5791 5794 5798 5803 5806 5809 5810 5810 5812 5814 5816 5819 5823 5824 5824 5828 5832 5834 5836 5837 5838 5840 5841 5843 5846 5846 5847 5849 5850 5850 5851 5852
5513 5517 5520 5524 5528 5531 5536 5541 5547 5552 5558 5562 5562 5565 5569 5573 5576 5580 5590 5596 5600 5610 5616 5620 5626 5632 5639 5648 5655 5661 5666 5672 5679 5683 5687 5692 5697 5702 5703 5706 5712 5718 5724 5728 5731 5735 5742 5749 5753 5756 5761 5765 5769 5775 5781 5784 5787 5791 5796 5799 5801 5804 5805 5806 5808 5811 5813 5815 5818 5820 5820 5823 5828 5832 5832 5834 5836 5837 5840 5841 5843 5844 5845 5846 5848 5848 5849 5850
5509 5512 5515 5520 5524 5527 5533 5538 5545 5551 5556 5557 5558 5561 5564 5566 5571 5577 5584 5589 5595 5605 5612 5617 5625 5630 5636 5645 5651 5655 5662 5670 5674 5674 5679 5687 5692 5695 5697 5703 5710 5716 5720 5723 5726 5731 5739 5745 5749 5754 5758 5761 5768 5775 5779 5781 5784 5788 5792 5794 5796 5799 5800 5802 5804 5806 5809 5810 5812 5816 5818 5817 5823 5830 5829 5829 5833 5836 5837 5838 5839 5841 5843 5844 5846 5846 5847 5848
5505 5507 5510 5515 5520 5524 5530 5535 5541 5546 5549 5552 5554 5557 5559 5561 5567 5573 5578 5584 5592 5602 5609 5614 5620 5624 5630 5639 5645 5651 5659 5665 5667 5669 5676 5682 5687 5690 5694 5701 5707 5711 5716 5721 5725 5728 5734 5741 5747 5750 5753 5760 5768 5772 5774 5777 5779 5784 5787 5788 5791 5793 5796 5798 5799 5802 5804 5805 5808 5813 5815 5813 5816 5825 5827 5826 5830 5834 5834 5835 5837 5839 5840 5842 5843 5844 5844 5846
5500 5503 5506 5511 5516 5521 5526 5531 5536 5540 5544 5548 5550 5552 5556 5558 5562 5566 5570 5580 5589 5597 5605 5611 5614 5619 5627 5635 5640 5647 5655 5659 5662 5667 5672 5676 5682 5687 5693 5698 5702 5705 5710 5714 5717 5722 5730 5736 5739 5742 5749 5759 5764 5765 5769 5772 5774 5779 5782 5783 5786 5789 5791 5793 5795 5798 5799 5799 5804 5809 5812 5811 5810 5817 5825 5825 5827 5831 5832 5832 5834 5835 5837 5838 5840 5841 5842 5843
5496 5499 5503 5507 5513 5518 5523 5527 5532 5537 5541 5545 5548 5549 5552 5555 5558 5560 5566 5580 5589 5594 5600 5605 5610 5617 5624 5632 5637 5643 5649 5653 5658 5662 5665 5670 5676 5681 5686 5689 5692 5697 5701 5704 5708 5715 5722 5725 5729 5739 5747 5751 5754 5758 5762 5765 5768 5772 5776 5779 5782 5784 5786 5788 5789 5792 5793 5795 5801 5804 5807 5808 5806 5811 5821 5825 5825 5827 5829 5830 5831 5832 5833 5835 5837 5838 5839 5840
5492 5495 5499 5503 5508 5514 5519 5523 5529 5535 5538 5543 5547 5547 5548 5550 5551 5555 5566 5579 5585 5588 5594 5599 5606 5615 5622 5628 5633 5639 5643 5647 5653 5657 5661 5666 5670 5675 5680 5682 5685 5688 5690 5695 5703 5709 5713 5718 5726 5735 5740 5742 5746 5750 5752 5756 5761 5765 5769 5774 5776 5778 5780 5781 5782 5785 5789 5793 5798 5800 5801 5803 5804 5808 5815 5821 5823 5824 5825 5826 5827 5829 5830 5832 5833 5835 5836 5837
5488 5491 5495 5499 5504 5511 5515 5519 5525 5531 5536 5541 5544 5544 5544 5543 5546 5556 5568 5575 5578 5584 5590 5595 5604 5613 5618 5621 5627 5632 5637 5641 5648 5654 5658 5663 5667 5672 5677 5680 5684 5686 5688 5695 5701 5704 5707 5712 5718 5724 5729 5735 5740 5743 5747 5752 5757 5761 5765 5768 5770 5772 5774 5776 5778 5782 5786 5791 5793 5795 5795 5797 5802 5806 5809 5814 5819 5820 5821 5823 5824 5826 5827 5828 5830 5831 5833 5834
5484 5488 5492 5496 5502 5508 5512 5516 5521 5528 5534 5537 5537 5538 5537 5537 5546 5559 5564 5568 5576 5582 5587 5593 5601 5607 5611 5617 5623 5628 5632 5635 5641 5648 5653 5658 5661 5666 5670 5674 5678 5682 5688 5693 5696 5699 5702 5704 5710 5717 5724 5730 5735 5740 5746 5752 5757 5759 5762 5764 5765 5769 5772 5775 5778 5780 5783 5786 5788 5788 5789 5792 5798 5803 5806 5809 5813 5816 5818 5819 5821 5822 5823 5825 5826 5828 5830 5831
5481 5485 5489 5493 5499 5504 5509 5512 5518 5525 5530 5531 5531 5531 5532 5538 5549 5556 5558 5565 5574 5580 5585 5591 5596 5600 5605 5613 5619 5623 5627 5631 5636 5641 5646 5650 5655 5661 5666 5669 5672 5677 5682 5686 5690 5697 5700 5705 5713 5719 5724 5729 5732 5736 5741 5745 5748 5751 5754 5756 5760 5766 5769 5771 5773 5776 5777 5779 5780 5782 5785 5790 5795 5799 5802 5804 5807 5810 5813 5815 5817 5819 5821 5822 5823 5825 5826 5827
5477 5482 5485 5489 5495 5502 5506 5509 5515 5521 5525 5526 5526 5525 5531 5542 5549 5553 5557 5565 5572 5576 5582 5587 5590 5593 5599 5606 5611 5615 5619 5625 5630 5633 5638 5644 5650 5657 5663 5666 5670 5676 5680 5684 5689 5694 5698 5704 5711 5716 5721 5725 5729 5733 5738 5741 5743 5744 5746 5750 5757 5762 5763 5765 5767 5770 5771 5772 5774 5779 5783 5788 5791 5794 5797 5800 5803 5806 5808 5810 5813 5815 5817 5818 5820 5821 5822 5822
5474 5479 5483 5487 5493 5498 5502 5506 5511 5516 5519 5521 5521 5524 5533 5542 5545 5548 5554 5562 5567 5571 5576 5581 5582 5586 5592 5598 5604 5610 5614 5619 5623 5626 5630 5638 5643 5650 5658 5662 5667 5673 5678 5683 5687 5692 5698 5703 5706 5710 5716 5720 5724 5728 5732 5734 5736 5738 5742 5749 5755 5755 5756 5760 5762 5763 5765 5767 5770 5775 5779 5783 5786 5789 5794 5797 5799 5802 5803 5805 5807 5810 5812 5813 5815 5816 5816 5817
5470 5476 5480 5484 5489 5495 5499 5503 5507 5511 5514 5516 5518 5524 5532 5537 5541 5546 5552 5558 5563 5566 5570 5574 5577 5582 5587 5593 5601 5607 5611 5614 5618 5621 5626 5631 5636 5643 5652 5657 5663 5669 5674 5679 5683 5688 5694 5698 5700 5706 5710 5713 5717 5720 5722 5725 5728 5733 5739 5745 5747 5747 5750 5754 5755 5757 5761 5763 5766 5771 5774 5777 5782 5787 5791 5793 5796 5797 5797 5799 5802 5805 5807 5808 5809 5810 5810 5811
5466 5471 5475 5479 5485 5491 5495 5499 5503 5507 5509 5511 5515 5521 5527 5533 5539 5545 5550 5555 5559 5561 5565 5570 5575 5580 5582 5588 5597 5603 5607 5610 5614 5620 5625 5628 5633 5640 5648 5654 5660 5665 5670 5674 5679 5683 5689 5692 5694 5700 5704 5707 5710 5712 5715 5720 5724 5729 5734 5736 5738 5740 5743 5748 5750 5753 5756 5758 5762 5764 5766 5772 5780 5785 5788 5790 5792 5792 5793 5795 5797 5800 5802 5803 5803 5803 5804 5805
5463 5468 5471 5476 5481 5486 5491 5496 5499 5501 5504 5509 5514 5520 5526 5532 5536 5541 5546 5550 5553 5557 5562 5567 5572 5575 5578 5584 5591 5596 5601 5606 5610 5617 5623 5628 5633 5638 5644 5650 5656 5662 5668 5671 5675 5679 5683 5686 5689 5695 5697 5698 5700 5704 5712 5720 5723 5727 5729 5731 5733 5735 5738 5742 5744 5747 5751 5753 5757 5759 5761 5769 5778 5782 5784 5787 5788 5788 5789 5790 5791 5793 5796 5797 5797 5798 5799 5800
5460 5464 5468 5473 5478 5483 5487 5491 5493 5497 5502 5508 5512 5517 5522 5527 5531 5537 5541 5544 5548 5553 5559 5563 5566 5571 5575 5580 5586 5591 5596 5600 5605 5612 5617 5623 5629 5634 5640 5646 5653 5659 5663 5664 5668 5672 5676 5680 5685 5688 5688 5691 5698 5706 5713 5717 5720 5722 5724 5727 5731 5733 5736 5738 5740 5745 5750 5752 5755 5756 5757 5766 5774 5776 5779 5782 5783 5785 5786 5786 5786 5786 5788 5790 5792 5793 5794 5796
5456 5461 5467 5472 5475 5479 5484 5487 5490 5495 5499 5505 5510 5514 5519 5523 5528 5534 5537 5539 5543 5549 5555 5558 5562 5568 5572 5576 5582 5587 5591 5595 5600 5606 5613 5621 5628 5634 5639 5643 5648 5654 5657 5659 5665 5670 5673 5676 5679 5682 5685 5691 5696 5700 5705 5709 5712 5713 5714 5719 5723 5724 5728 5733 5737 5744 5748 5748 5751 5751 5750 5761 5769 5770 5773 5777 5779 5781 5782 5781 5781 5780 5781 5783 5786 5788 5790 5792
5453 5459 5464 5469 5473 5476 5479 5482 5485 5490 5496 5503 5508 5510 5513 5518 5523 5527 5530 5534 5538 5543 5549 5554 5558 5564 5568 5574 5578 5582 5586 5590 5595 5602 5611 5619 5626 5632 5635 5637 5642 5647 5650 5654 5660 5665 5667 5669 5672 5677 5682 5685 5688 5691 5697 5701 5702 5703 5706 5712 5716 5718 5725 5731 5734 5739 5740 5741 5745 5744 5745 5757 5765 5766 5769 5771 5774 5777 5776 5775 5776 5776 5777 5779 5780 5783 5785 5786
5451 5456 5460 5464 5468 5470 5473 5477 5482 5488 5494 5499 5501 5503 5507 5513 5518 5522 5527 5531 5535 5539 5545 5550 5555 5561 5566 5571 5575 5578 5583 5587 5590 5598 5606 5614 5621 5625 5627 5631 5636 5639 5643 5649 5654 5657 5661 5662 5664 5669 5673 5675 5677 5681 5685 5689 5693 5698 5704 5710 5714 5718 5723 5725 5727 5730 5731 5735 5740 5738 5741 5754 5761 5762 5765 5768 5770 5771 5770 5771 5773 5774 5774 5774 5775 5777 5778 5780
5447 5452 5456 5460 5463 5465 5468 5474 5480 5485 5491 5494 5496 5499 5503 5509 5514 5519 5524 5528 5531 5535 5540 5546 5552 5557 5561 5566 5570 5575 5579 5583 5588 5593 5600 5608 5615 5618 5622 5626 5630 5634 5641 5647 5651 5654 5656 5655 5656 5661 5663 5664 5667 5672 5679 5688 5694 5697 5701 5706 5711 5715 5716 5718 5721 5721 5722 5730 5733 5731 5739 5753 5756 5758 5761 5762 5764 5766 5766 5767 5770 5771 5770 5769 5769 5770 5772 5773
5444 5447 5451 5454 5457 5460 5465 5470 5475 5479 5483 5487 5492 5496 5499 5504 5510 5515 5518 5523 5527 5531 5535 5541 5547 5550 5554 5559 5564 5570 5575 5580 5585 5589 5596 5604 5609 5613 5618 5622 5626 5632 5637 5641 5646 5649 5649 5649 5652 5656 5660 5665 5670 5676 5683 5688 5689 5692 5698 5703 5707 5708 5709 5711 5711 5711 5719 5725 5725 5729 5741 5750 5752 5754 5756 5756 5758 5761 5763 5764 5765 5765 5765 5763 5763 5764 5765 5766
5439 5443 5447 5450 5453 5455 5460 5465 5469 5473 5478 5483 5488 5492 5496 5502 5508 5511 5513 5518 5523 5528 5532 5537 5540 5543 5549 5555 5560 5565 5571 5576 5581 5587 5593 5600 5605 5610 5614 5617 5622 5628 5632 5634 5638 5642 5643 5644 5649 5653 5658 5665 5670 5673 5676 5677 5681 5690 5697 5699 5701 5703 5704 5704 5704 5711 5721 5719 5718 5732 5742 5743 5747 5751 5751 5752 5754 5755 5757 5758 5758 5759 5758 5757 5757 5757 5758 5760
5436 5440 5444 5448 5450 5452 5458 5464 5468 5472 5476 5480 5485 5490 5494 5499 5503 5506 5510 5515 5520 5524 5528 5532 5536 5540 5547 5553 5557 5562 5568 5572 5578 5584 5590 5594 5599 5604 5609 5614 5619 5623 5626 5627 5631 5634 5636 5640 5646 5650 5654 5660 5662 5664 5668 5671 5676 5685 5688 5691 5695 5697 5698 5700 5703 5712 5717 5710 5715 5733 5737 5734 5741 5745 5744 5748 5749 5748 5749 5750 5751 5751 5750 5751 5752 5752 5753 5755
5434 5438 5441 5443 5445 5450 5457 5462 5466 5469 5473 5477 5481 5485 5490 5494 5498 5502 5508 5511 5514 5518 5522 5526 5533 5540 5546 5550 5554 5558 5563 5567 5574 5582 5588 5592 5596 5600 5605 5610 5615 5618 5619 5622 5626 5628 5630 5636 5642 5644 5648 5653 5655 5658 5664 5666 5670 5675 5678 5682 5687 5688 5690 5695 5700 5708 5708 5703 5714 5727 5725 5725 5734 5737 5739 5742 5740 5740 5743 5743 5744 5745 5745 5747 5748 5747 5749 5751
5430 5434 5438 5440 5443 5448 5452 5454 5457 5462 5467 5472 5475 5479 5486 5491 5495 5500 5504 5506 5510 5515 5519 5524 5532 5539 5544 5547 5551 5555 5561 5566 5573 5581 5588 5591 5594 5599 5603 5607 5612 5615 5615 5618 5622 5624 5627 5632 5636 5639 5643 5646 5648 5654 5659 5661 5664 5668 5671 5676 5680 5680 5683 5686 5692 5700 5700 5700 5712 5719 5716 5720 5729 5733 5734 5735 5733 5734 5736 5737 5740 5741 5741 5742 5741 5741 5744 5746
5426 5431 5435 5437 5440 5444 5446 5449 5452 5456 5461 5464 5469 5476 5481 5486 5493 5499 5501 5503 5508 5514 5518 5525 5533 5538 5541 5543 5546 5552 5560 5565 5571 5578 5585 5588 5592 5596 5598 5602 5606 5609 5611 5615 5618 5620 5624 5627 5631 5635 5635 5638 5645 5650 5652 5656 5660 5659 5661 5667 5671 5673 5677 5682 5690 5696 5696 5699 5709 5711 5709 5719 5727 5728 5728 5727 5727 5729 5731 5733 5735 5735 5735 5736 5735 5737 5740 5741
5423 5427 5431 5433 5436 5438 5441 5445 5447 5450 5455 5461 5468 5475 5479 5485 5492 5495 5496 5499 5505 5511 5517 5523 5529 5533 5535 5537 5543 5552 5560 5564 5569 5575 5578 5581 5585 5586 5587 5590 5594 5598 5603 5609 5613 5617 5620 5622 5626 5628 5628 5634 5641 5644 5647 5652 5647 5643 5651 5663 5668 5672 5677 5681 5686 5690 5691 5696 5702 5702 5708 5719 5722 5720 5720 5720 5721 5723 5725 5727 5728 5728 5729 5729 5730 5732 5735 5736